Weather in Yakshur

Russia / Udmurt Republic     56°53′02″N   53°26′15″E
temp.,
°C
wind,
m/s
gust,
m/s
humid.,
%
clouds,
%
prec.,
mm/h
press.,
hPa
HPBL,
m
20 january, wed
wed2001:00−15sse2297100 0.4 101155
04:00−17s2297100 0.5 101125
07:00−18ssw259891 0.1 1011152
10:00−20ssw249891 0.2 1011125
13:00−18sw349590 0.1 1012261
16:00−18ssw359795 0.1 1012214
19:00−19ssw369897 0.1 1014187
22:00−18wsw379792 0.2 1014250
21 january, thu
thu2101:00−18wsw3797100 0.1 1014248
04:00−18wsw3697100 0.3 1014215
07:00−18wsw3697100 0.1 1014193
10:00−18wsw3798100 0.2 1014229
13:00−15wsw3694100 0.1 1014373
16:00−15w3795100 0.1 1013356
19:00−16w3896100 0.1 1013328
22:00−18w2598100 0.1 101496
22 january, fri
fri2201:00−18w2298100 0.0 101476
04:00−19nw2297100 0.0 101428
07:00−23nnw229770 0.0 101620
10:00−24nnw229635 0.0 101728
13:00−21n24920 0.0 1019253
16:00−23n22950 0.0 102222
19:00−26ne23950 0.0 102520
22:00−24ene239693 0.1 102248
23 january, sat
sat2301:00−25e339652 0.0 102352
04:00−23ese369776 0.0 1024148
07:00−20ese4798100 0.1 1023244
10:00−18se51096100 1.2 1021347
13:00−14sse51095100 1.6 1019483
16:00−13sse4895100 2.5 1017351
19:00−12se3795100 0.6 1016253
22:00−12ese2396100 1.0 101577
24 january, sun
sun2401:00−10e2296100 0.2 101573
04:00−7e2396100 1.1 1015100
07:00−3s1499100 1.9 1015154
10:000wsw4899100 3.6 1015411
13:00+1sw37100100 0.4 1015285
16:00+1wsw3798100 0.4 1016292
19:000wsw2598100 0.1 1018152
22:00+1sw2599100 0.1 1019160